Home   Weather   Jalalabad   Past weeks

Flag for Afghanistan Past Weather in Jalalabad, Afghanistan — Yesterday and Last 2 Weeks

Now
68 °F

Scattered clouds.


Feels Like: 68 °F
Forecast: 43 / 54 °F
Wind: 5 mph from Northeast

Location: Peshawar Airport

Current Time: Jan 22, 2017 at 3:04:29 pm

Latest Report: Jan 22, 2017 at 2:30 pm


Visibility: 3 mi

Pressure: 30.21 "Hg (28.26 "Hg at 572m altitude)

Humidity: 40%

Dew Point: 43 °F

Location of JalalabadLocation

Past Weather in Jalalabad — Graph

°F

Jalalabad Temperature Yesterday

Maximum temperature yesterday: 66 °F (at 1:30 pm)
Minimum temperature yesterday: 45 °F (at 5:30 am)
Average temperature yesterday: 57 °F

High & Low Weather Summary for the Past Weeks

 TemperatureHumidityPressure
High66 °F (Jan 21, 1:30 pm)94% (Jan 18, 12:30 pm)30.42 "Hg (Jan 18, 12:30 pm)
Low36 °F (Jan 10, 6:30 am)27% (Jan 10, 1:30 pm)29.89 "Hg (Jan 7, 1:30 pm)
Average51 °F63%30.13 "Hg
* Reported Jan 7 1:30 pm — Jan 22 1:30 pm, Jalalabad, Weather by CustomWeather, © 2017

Note: Actual official high and low records may vary slightly from our data, if they occured in-between our weather recording intervals... More about our weather records

Advertising

Jalalabad Weather History for the Previous 24 Hours

Scroll right to see more
 ConditionsComfort  
Time TempWeatherWind HumidityBarometerVisibility
1:30 pm
Sun, Jan 22
66 °FScattered clouds.No wind43%30.24 "Hg2 mi
12:30 pm66 °FScattered clouds.No wind43%30.24 "Hg2 mi
11:30 am66 °FScattered clouds.5 mph43%30.27 "Hg2 mi
11:00 am64 °FScattered clouds.No wind46%30.30 "Hg2 mi
10:30 am64 °FScattered clouds.No wind46%30.30 "Hg2 mi
10:00 am59 °FHaze.No wind55%30.27 "Hg2 mi
9:30 am59 °FHaze.No wind55%30.27 "Hg2 mi
9:00 am52 °FHaze.5 mph62%30.27 "Hg2 mi
8:30 am52 °FHaze.5 mph62%30.27 "Hg2 mi
8:00 am50 °FHaze.5 mph67%30.24 "Hg2 mi
7:30 am50 °FHaze.5 mph67%30.24 "Hg2 mi
6:30 am48 °FPassing clouds.7 mph71%30.21 "Hg2 mi
5:30 am48 °FPassing clouds.9 mph71%30.21 "Hg2 mi
4:29 am48 °FPartly cloudy.7 mph66%30.21 "Hg2 mi
3:30 am50 °FPassing clouds.5 mph62%30.21 "Hg2 mi
2:30 am50 °FPassing clouds.5 mph62%30.18 "Hg2 mi
2:00 am52 °FPassing clouds.No wind67%30.18 "Hg2 mi
1:30 am52 °FPassing clouds.No wind67%30.18 "Hg2 mi
1:00 am52 °FPassing clouds.No wind62%30.18 "Hg2 mi
12:30 am52 °FPassing clouds.No wind62%30.18 "Hg2 mi
12:00 am52 °FPassing clouds.No wind62%30.18 "Hg2 mi
11:30 pm
Sat, Jan 21
52 °FPassing clouds.No wind62%30.18 "Hg2 mi
11:00 pm54 °FPassing clouds.7 mph63%30.18 "Hg2 mi
10:30 pm54 °FPassing clouds.7 mph63%30.18 "Hg2 mi
9:30 pm55 °FPassing clouds.7 mph59%30.18 "Hg2 mi
9:00 pm55 °FPassing clouds.7 mph59%30.18 "Hg2 mi
8:30 pm55 °FPassing clouds.7 mph59%30.18 "Hg2 mi
8:00 pm55 °FPassing clouds.5 mph55%30.18 "Hg2 mi
7:30 pm55 °FPassing clouds.5 mph55%30.18 "Hg2 mi
7:00 pm57 °FPassing clouds.5 mph51%30.15 "Hg2 mi
6:29 pm57 °FPassing clouds.5 mph51%30.15 "Hg2 mi
6:00 pm59 °FPassing clouds.5 mph48%30.15 "Hg2 mi
5:30 pm59 °FPassing clouds.5 mph48%30.15 "Hg2 mi
5:00 pm64 °FPartly sunny.5 mph46%30.12 "Hg2 mi
4:30 pm64 °FPartly sunny.5 mph46%30.12 "Hg2 mi
4:00 pm66 °FScattered clouds.5 mph43%30.15 "Hg2 mi
3:30 pm66 °FScattered clouds.5 mph43%30.15 "Hg2 mi
3:00 pm66 °FScattered clouds.5 mph43%30.15 "Hg2 mi
Weather by CustomWeather, © 2017

See weather overviewHow to use our weather pages